📊 Raw Sensor Data

Showing records 41901 to 41925 of 84,990 total

ID Distance (ft) Battery V Battery A Int Temp (°F) Int Humid (%) Ext Temp (°F) Solar V RSSI SNR Time Stamp
43102 15.7 4.02 0 78 44 80 5.10 -71 7 06/10/2025 11:30 AM
43101 15.7 4.02 0 77 43 75 5.10 -72 8 06/10/2025 11:15 AM
43100 15.7 4.05 0 77 43 74 5.10 -71 8 06/10/2025 11:00 AM
43099 15.7 4.06 0 76 43 73 5.10 -71 7 06/10/2025 10:45 AM
43098 15.7 4.02 0 75 43 77 5.10 -71 8 06/10/2025 10:30 AM
43097 15.7 4.05 0 74 43 75 5.10 -70 8 06/10/2025 10:15 AM
43096 15.7 4.02 0 73 43 75 5.10 -70 8 06/10/2025 10:00 AM
43095 15.8 4.02 0 72 43 74 5.10 -71 7 06/10/2025 09:45 AM
43094 15.8 4.02 0 72 43 73 5.10 -71 7 06/10/2025 09:30 AM
43093 15.7 4.02 0 70 44 70 5.10 -69 8 06/10/2025 09:15 AM
43092 15.7 4.14 0 69 44 70 5.10 -71 8 06/10/2025 09:00 AM
43091 15.7 4.02 0 68 44 71 5.10 -68 8 06/10/2025 08:45 AM
43090 15.7 4.02 0 67 44 70 5.10 -68 8 06/10/2025 08:30 AM
43089 15.7 4.08 0 66 44 68 5.10 -70 8 06/10/2025 08:15 AM
43088 15.7 4.05 0 66 43 71 5.10 -69 8 06/10/2025 08:00 AM
43087 15.7 4.02 0 64 43 70 5.10 -69 8 06/10/2025 07:45 AM
43086 15.7 4.09 53 63 43 68 4.50 -70 8 06/10/2025 07:30 AM
43085 15.7 4.03 24 62 42 67 4.50 -69 8 06/10/2025 07:15 AM
43084 15.6 4.05 0 60 42 66 4.50 -69 8 06/10/2025 07:00 AM
43083 15.6 4.03 6 59 42 64 4.50 -69 8 06/10/2025 06:45 AM
43082 15.5 4.02 0 57 42 61 4.50 -69 8 06/10/2025 06:30 AM
43081 15.5 3.96 0 55 43 59 4.50 -70 8 06/10/2025 06:15 AM
43080 15.4 3.95 -6 54 43 55 4.50 -70 8 06/10/2025 06:00 AM
43079 15.4 4.00 -10 54 43 55 4.30 -68 8 06/10/2025 05:45 AM
43078 15.4 3.95 -5 54 43 55 0.60 -69 8 06/10/2025 05:30 AM